Location: Freistadt
(48.5112°N, 14.5013°E)
Time: 08:08:44
(UTC+01:00)

N. Korean satellite - Pass Details

Date: 29 November 2022
Orbit: 407 x 442 km, 97.3° (Epoch: 04 February)

Event Time Altitude Azimuth Distance (km) Brightness Sun altitude
Rises 04:37:21 0° 25° (NNE) 2,529 10.5 -27.8°
Reaches altitude 10° 04:39:46 10° 41° (NE) 1,645 9.7 -27.4°
Maximum altitude 04:42:34 22° 94° (E) 1,083 9.0 -27.0°
Drops below altitude 10° 04:45:21 10° 146° (SSE) 1,622 9.6 -26.5°
Sets 04:47:42 0° 162° (SSE) 2,484 10.4 -26.1°
